This is the latest recevied weather packets stored in our database for station/object HK6RM-18. If no packets are shown the sender has not sent any weather packets the latest 10 day(s).
| Time | Temp. | Humidity | Pressure | Rain* | Wind** | Luminosity | Snow |
|---|---|---|---|---|---|---|---|
| 1788146461 | 60° F | 83% | 762.8 mmHg | 0 in | - | - | - |
| 1788145561 | 61° F | 82% | 762.8 mmHg | 0 in | - | - | - |
| 1788144660 | 59° F | 85% | 762.8 mmHg | 0 in | - | - | - |
| 1788143760 | 60° F | 82% | 762.8 mmHg | 0 in | - | - | - |
| 1788142860 | 61° F | 82% | 762.1 mmHg | 0 in | - | - | - |
| 1788141959 | 62° F | 83% | 762.1 mmHg | 0 in | - | - | - |
| 1788141059 | 59° F | 79% | 762.1 mmHg | 0 in | - | - | - |
| 1788140158 | 60° F | 78% | 762.1 mmHg | 0 in | - | - | - |
| 1788139258 | 59° F | 80% | 761.3 mmHg | 0 in | - | - | - |
| 1788138357 | 60° F | 80% | 761.3 mmHg | 0 in | - | - | - |
| 1788137457 | 61° F | 80% | 761.3 mmHg | 0 in | - | - | - |
| 1788136556 | 63° F | 79% | 761.3 mmHg | 0 in | - | - | - |
| 1788135656 | 61° F | 78% | 760.6 mmHg | 0 in | - | - | - |
| 1788134755 | 61° F | 78% | 760.6 mmHg | 0 in | - | - | - |
| 1788133850 | 62° F | 78% | 760.6 mmHg | 0 in | - | - | - |
| 1788132950 | 63° F | 78% | 759.8 mmHg | 0 in | - | - | - |
| 1788132049 | 62° F | 79% | 759.8 mmHg | 0 in | - | - | - |
| 1788130813 | 63° F | 79% | 759.8 mmHg | 0 in | - | - | - |
| 1788129913 | 64° F | 79% | 759.8 mmHg | 0 in | - | - | - |
| 1788129012 | 65° F | 79% | 759.1 mmHg | 0 in | - | - | - |
| 1788127193 | 66° F | 79% | 758.3 mmHg | 0 in | - | - | - |
| 1788126292 | 67° F | 79% | 758.3 mmHg | 0 in | - | - | - |
| 1788125392 | 66° F | 79% | 758.3 mmHg | 0 in | - | - | - |
| 1788124492 | 67° F | 78% | 758.3 mmHg | 0 in | - | - | - |
| 1788123591 | 68° F | 76% | 758.3 mmHg | 0 in | - | - | - |
* Rain latest hour (hover to see other rain measurements)
** Current wind speed in m/s (hover to see current wind gust speed)